カタログに戻る

STARLINK-32759

運用中通信VLEO
NORAD 62751·PAYLOAD·🇺🇸 United States

打ち上げ Jan 21, 2025 から Cape Canaveral Space Force Station

Loading…

次のパス (今後24時間)

TLE

最新Source: CelesTrak SupGP

元期: Sep 14, 2026, 22:22 UTC

1 62751C 25014S   26257.93243056 -.00056114  00000+0 -20323-2 0  2574
2 62751  42.9992 169.3678 0001192 266.0911 200.0905 15.27608864    10

AllMySatでSTARLINK-32759をリアルタイム追跡

Download on the App Store